Regional Weather Roundup
Issued by NWS

Home | Current Version | Previous Version | Graphics & Text | Print | Product List | Glossary On
Versions: 1 2 3 4 5 6 7 8 9 10 11 12 13 14 15 16 17 18 19 20 21 22 23 24 25 26 27 28 29 30 31 32 33 34 35 36 37 38 39 40 41 42 43 44 45 46 47 48 49 50
000
ASUS45 KCYS 270410
RWRWY

WYOMING REGIONAL WEATHER ROUNDUP
NATIONAL WEATHER SERVICE CHEYENNE WY
1000 PM MDT MON JUN 26 2017

NOTE:  "FAIR" INDICATES FEW OR NO CLOUDS BELOW 12,000 FEET
WITH NO SIGNIFICANT WEATHER AND/OR OBSTRUCTIONS TO VISIBILITY.

WYZ001-270500-
YELLOWSTONE NATIONAL PARK

CITY           SKY/WX    TMP DP  RH WIND       PRES   REMARKS
LK YELLOWSTONE   N/A     56  42  59 CALM      30.17F
W YELLOWSTONE  NOT AVBL

$$
WYZ002>013-054>058-071-098>099-270500-
NORTHERN WYOMING

CITY           SKY/WX    TMP DP  RH WIND       PRES   REMARKS
JACKSON        FAIR      63  45  51 N5        30.06S
CODY           FAIR      76  34  21 NW5       29.92S
GREYBULL       FAIR      81  25  12 SE3       29.80F
WORLAND        FAIR      77  32  19 SE10      29.84S
SHERIDAN       FAIR      62  51  67 NW7       29.86F
BUFFALO        FAIR      70  42  36 MISG      29.95F
GILLETTE       FAIR      73  41  31 SE17G25   29.94F
NEWCASTLE      FAIR      70  34  26 SE18G30   30.03S

$$
WYZ014>020-022>026-101>103-270500-
CENTRAL WYOMING

CITY           SKY/WX    TMP DP  RH WIND       PRES   REMARKS
BIG PINEY      FAIR      59  38  45 NW8       30.13F
PINEDALE       FAIR      61  37  41 CALM      30.14S
DUBOIS         FAIR      68  32  26 W5        30.12R
LANDER         FAIR      72  32  23 SW7       30.00S
RIVERTON       FAIR      75  31  19 W12       29.97F
CASPER         FAIR      71  44  37 SE9       29.99S
DOUGLAS        FAIR      71  42  35 S16       30.04S

$$
WYZ021-027>030-104>119-270500-
SOUTHERN WYOMING

CITY           SKY/WX    TMP DP  RH WIND       PRES   REMARKS
EVANSTON       FAIR      73  34  23 S6        30.12F
KEMMERER         N/A     68  32  26 S7        30.15F
FORT BRIDGER   FAIR      66  36  32 S13       30.16S
ROCK SPRINGS   FAIR      70  30  22 SW10      30.12S
DIXON          FAIR      69  31  23 NE8       30.16R
RAWLINS        FAIR      73  26  17 W12G22    30.13S
SARATOGA       FAIR      64  30  27 NW5       30.15S
LARAMIE        FAIR      65  41  41 SE22      30.20R
CHEYENNE       FAIR      66  52  60 SE17G23   30.18R
TORRINGTON     FAIR      71  41  33 SE15      30.05R
PINE BLUFFS    FAIR      64  55  72 SE20G30   30.14R

$$



USA.gov is the U.S. government's official web portal to all federal, state and local government web resources and services.